[[{"header":{"parameterUnit":"m.s-1","parameterCategory":1,"la1":30.2991,"la2":30.254,"lo1":-89.0895,"lo2":-89.0444,"dy":0.0017,"dx":0.0017,"nx":28,"ny":28,"refTime":"2024-04-14T09:00:00:Z","depth":0,"parameterNumber":2,"parameterNumberName":"U-component_of_WINDS"},"data":[0,0,0,0,0,0,0,0,0,0,0,0,0,0,0,0,0,0,0,0,0,0,0,0,0,0,0,0,0,0,0,0,0,0,0,0,0,0,0,0,0,0,0,0,0,0,0,0,0,0,0,0,0,0,0,0,0,0,-1.3737,-1.3738,0,-1.3805,-1.3805,-1.3806,-1.377,-1.3768,-1.3766,-1.3764,-1.3839,-1.3843,-1.3846,0,0,0,0,0,0,0,0,0,0,0,0,0,-1.3581,-1.3584,-1.3737,-1.3738,-1.3739,-1.3805,-1.3806,-1.3806,-1.377,-1.3768,-1.3766,-1.3764,-1.3838,-1.3842,-1.3847,0,0,0,0,0,0,0,0,0,0,0,0,0,-1.3649,-1.3585,-1.3737,-1.3728,-1.3728,-1.3804,-1.3806,-1.3807,-1.3771,-1.3768,-1.3765,-1.3763,-1.3836,-1.3842,-1.3847,-1.3937,0,0,-1.3864,-1.3867,0,0,0,0,0,0,0,0,-1.3645,-1.3654,-1.3729,-1.3729,-1.3729,-1.3776,-1.3778,-1.3851,-1.3771,-1.3755,-1.3764,-1.3761,-1.3821,-1.3827,-1.3846,-1.3941,-1.3944,-1.3865,-1.3868,-1.387,-1.3872,0,0,0,0,0,0,0,-1.364,-1.3651,-1.3764,-1.373,-1.373,-1.3723,-1.3729,-1.3791,-1.3803,-1.3756,-1.3753,-1.3762,-1.382,-1.3841,-1.3848,-1.3945,-1.3865,-1.3869,-1.3873,-1.3875,-1.4117,-1.412,0,0,0,0,0,0,-1.3635,-1.3648,-1.3762,-1.3766,-1.3679,-1.3728,-1.3735,-1.3764,-1.3802,-1.3805,-1.3764,-1.376,-1.3833,-1.3841,-1.385,-1.3958,-1.387,-1.3876,-1.3879,-1.4114,-1.4118,-1.4121,0,0,0,0,0,0,-1.3632,-1.3646,-1.3759,-1.3706,-1.372,-1.3733,-1.3766,-1.3767,-1.3787,-1.3808,-1.381,-1.3783,-1.3831,-1.3842,-1.3916,-1.3961,-1.3878,-1.3883,-1.411,-1.4115,-1.4119,-1.4175,0,0,0,0,0,0,-1.3628,-1.3645,-1.3678,-1.3707,-1.3723,-1.3822,-1.3769,-1.377,-1.3796,-1.3791,-1.3826,-1.3829,-1.383,-1.3907,-1.3921,-1.3967,-1.3888,-1.4106,-1.4113,-1.4118,-1.417,-1.4181,-1.4191,0,0,0,0,0,-1.3622,-1.3692,-1.368,-1.3694,-1.3764,-1.3825,-1.3834,-1.3831,-1.38,-1.3834,-1.3848,-1.3828,-1.3953,-1.3915,-1.393,-1.3978,-1.4104,-1.4111,-1.4118,-1.4165,-1.4179,-1.4191,0,0,0,0,0,0,-1.367,-1.3696,-1.3683,-1.3763,-1.3792,-1.3818,-1.3861,-1.3847,-1.3886,-1.388,-1.3877,-1.3885,-1.3961,-1.3977,-1.3934,-1.4068,-1.4024,-1.4034,-1.4055,-1.4068,-1.4079,-1.4074,-1.3892,0,0,0,0,0,-1.3689,-1.3735,-1.3755,-1.3825,-1.384,-1.3848,-1.3874,-1.387,-1.39,-1.3912,-1.3931,-1.3962,-1.4008,-1.4039,-1.4083,-1.4171,-1.4179,-1.4212,-1.4223,-1.4232,-1.4241,-1.429,-1.4305,-1.4144,-1.4144,-1.4144,0,0,-1.3731,-1.3751,-1.378,-1.3835,-1.3856,-1.3905,-1.3859,-1.3912,-1.3948,-1.3921,-1.3991,-1.4005,-1.404,-1.4122,-1.4158,-1.4137,-1.4287,-1.424,-1.4247,-1.4252,-1.4299,-1.4314,-1.4327,-1.4149,-1.4148,-1.4147,0,0,-1.3832,-1.3851,-1.3911,-1.3933,-1.3965,-1.397,-1.3985,-1.4014,-1.4022,-1.4091,-1.4072,-1.4116,-1.4196,-1.4221,-1.4245,-1.4355,-1.4339,-1.4369,-1.4427,-1.4474,-1.4487,-1.4498,-1.4539,-1.4553,-1.4378,-1.4378,-1.4378,0,-1.388,-1.3951,-1.3944,-1.3999,-1.4024,-1.3999,-1.4061,-1.4084,-1.413,-1.4148,-1.4123,-1.4223,-1.4244,-1.4332,-1.4358,-1.4378,-1.4396,-1.4366,-1.4485,-1.4497,-1.4507,-1.4546,-1.4561,-1.4382,-1.4381,-1.4381,-1.4381,0,-1.4009,-1.4058,-1.4103,-1.4146,-1.4176,-1.4234,-1.4238,-1.427,-1.4263,-1.4271,-1.4343,-1.4368,-1.4416,-1.4436,-1.4431,-1.4523,-1.4509,-1.4485,-1.4441,-1.4526,-1.4562,-1.4577,-1.4387,-1.4386,-1.4385,-1.4384,0,0,-1.4143,-1.418,-1.4197,-1.4216,-1.425,-1.4289,-1.4346,-1.4392,-1.442,-1.4452,-1.4501,-1.4569,-1.4546,-1.4573,-1.457,-1.4612,-1.4698,-1.4582,-1.4583,-1.4604,-1.4803,-1.4822,-1.4839,-1.4687,-1.469,-1.4692,-1.4801,0,-1.4246,-1.4344,-1.434,-1.4433,-1.4479,-1.4456,-1.4506,-1.4533,-1.4542,-1.4584,-1.4595,-1.4643,-1.4609,-1.4625,-1.4665,-1.4679,-1.4739,-1.4671,-1.4735,-1.4737,-1.4728,-1.4858,-1.4878,-1.4979,-1.4815,-1.4817,-1.4819,0,-1.438,-1.4415,-1.4512,-1.4539,-1.4558,-1.4603,-1.4645,-1.4684,-1.4715,-1.4719,-1.4748,-1.4738,-1.4798,-1.4751,-1.4834,-1.4789,-1.4814,-1.4825,-1.4829,-1.4836,-1.4784,-1.4869,-1.5011,-1.5027,-1.4841,-1.4839,-1.4837,0,-1.4469,-1.4541,-1.4608,-1.4625,-1.4658,-1.469,-1.4706,-1.4733,-1.4761,-1.4798,-1.4816,-1.486,-1.4885,-1.492,-1.4923,-1.4889,-1.5007,-1.4961,-1.5013,-1.5013,-1.504,-1.5039,-1.5189,-1.5055,-1.5055,-1.5055,-1.5054,0,-1.4586,-1.4646,-1.4648,-1.469,-1.4757,-1.4752,-1.482,-1.4832,-1.4857,-1.4902,-1.4885,-1.4928,-1.4928,-1.4972,-1.4975,-1.5044,-1.5055,-1.5061,-1.5061,-1.5063,-1.5063,-1.5081,-1.5074,-1.5059,-1.5058,-1.5057,-1.5056,0,-1.4697,-1.4701,-1.4772,-1.4797,-1.4805,-1.4853,-1.4875,-1.4916,-1.4923,-1.498,-1.4993,-1.5005,-1.5056,-1.5062,-1.5122,-1.5123,-1.5207,-1.5199,-1.5196,-1.5195,-1.5248,-1.5243,-1.5417,-1.544,-1.5289,-1.5291,-1.5292,0,-1.4772,-1.4818,-1.4847,-1.4874,-1.4891,-1.4936,-1.4964,-1.4961,-1.4991,-1.503,-1.5066,-1.5115,-1.5154,-1.5237,-1.5252,-1.5298,-1.5292,-1.5349,-1.5299,-1.5299,-1.5294,-1.5291,-1.5297,-1.5359,-1.5361,-1.5362,-1.5363,0,-1.4905,-1.4904,-1.4943,-1.4984,-1.5017,-1.505,-1.508,-1.5104,-1.5106,-1.514,-1.5191,-1.5221,-1.5282,-1.5331,-1.5376,-1.5394,-1.538,-1.5379,-1.5394,-1.5397,-1.5394,-1.5397,-1.5224,-1.5375,-1.5374,-1.5373,-1.5373,-1.5372,-1.5001,-1.504,-1.5067,-1.5112,-1.5134,-1.5162,-1.5201,-1.5213,-1.5254,-1.5302,-1.5298,-1.5355,-1.5385,-1.5444,-1.5465,-1.551,-1.5492,-1.5513,-1.5519,-1.5524,-1.553,-1.5385,-1.5519,-1.5518,-1.5518,-1.5518,-1.5517,0,-1.5133,-1.5149,-1.519,-1.5232,-1.5268,-1.5249,-1.5281,-1.5313,-1.5363,-1.5391,-1.5429,-1.5488,-1.5536,-1.5555,-1.5602,-1.5635,-1.5629,-1.5647,-1.5645,-1.565,-1.5543,-1.5526,-1.5651,-1.5651,-1.5651,-1.5651,-1.5651,-1.5651,-1.5206,-1.5272,-1.5275,-1.5352,-1.5368,-1.5422,-1.5442,-1.5469,-1.5492,-1.5558,-1.5596,-1.5607,-1.5632,-1.5681,-1.5725,-1.5729,-1.5748,-1.5769,-1.577,-1.5671,-1.5657,-1.5645,-1.5629,-1.5772,-1.5773,-1.5873,-1.5874,-1.5875]},{"header":{"parameterUnit":"m.s-1","parameterCategory":1,"la1":30.2991,"la2":30.254,"lo1":-89.0895,"lo2":-89.0444,"dy":0.0017,"dx":0.0017,"nx":28,"ny":28,"refTime":"2024-04-14T09:00:00:Z","depth":0,"parameterNumber":3,"parameterNumberName":"V-component_of_WINDS"},"data":[0,0,0,0,0,0,0,0,0,0,0,0,0,0,0,0,0,0,0,0,0,0,0,0,0,0,0,0,0,0,0,0,0,0,0,0,0,0,0,0,0,0,0,0,0,0,0,0,0,0,0,0,0,0,0,0,0,0,0.8854,0.8855,0,0.8912,0.8913,0.8913,0.888,0.8878,0.8877,0.8875,0.8939,0.8942,0.8945,0,0,0,0,0,0,0,0,0,0,0,0,0,0.8718,0.8721,0.8854,0.8855,0.8855,0.8912,0.8913,0.8913,0.888,0.8878,0.8876,0.8874,0.8938,0.8941,0.8945,0,0,0,0,0,0,0,0,0,0,0,0,0,0.8777,0.8722,0.8854,0.8845,0.8845,0.8912,0.8913,0.8914,0.8881,0.8878,0.8876,0.8873,0.8936,0.8941,0.8946,0.9025,0,0,0.8961,0.8963,0,0,0,0,0,0,0,0,0.8774,0.8782,0.8846,0.8846,0.8846,0.8886,0.8888,0.8951,0.8881,0.8867,0.8875,0.8872,0.8923,0.8929,0.8946,0.9028,0.9031,0.8961,0.8964,0.8966,0.8967,0,0,0,0,0,0,0,0.877,0.8779,0.8877,0.8847,0.8847,0.884,0.8846,0.89,0.8909,0.8868,0.8866,0.8873,0.8923,0.8941,0.8947,0.9031,0.8961,0.8965,0.8968,0.897,0.9182,0.9185,0,0,0,0,0,0,0.8766,0.8776,0.8875,0.8879,0.8803,0.8845,0.8851,0.8876,0.8908,0.891,0.8875,0.8871,0.8934,0.8941,0.8949,0.9045,0.8966,0.897,0.8973,0.918,0.9183,0.9186,0,0,0,0,0,0,0.8763,0.8775,0.8873,0.8827,0.8839,0.8849,0.8878,0.8878,0.8896,0.8913,0.8915,0.8892,0.8932,0.8942,0.9006,0.9046,0.8973,0.8977,0.9176,0.9181,0.9184,0.9236,0,0,0,0,0,0,0.8759,0.8774,0.8803,0.8828,0.8841,0.8928,0.888,0.8881,0.8904,0.89,0.8929,0.8932,0.8931,0.8999,0.9011,0.9052,0.8981,0.9173,0.9178,0.9183,0.9231,0.9241,0.925,0,0,0,0,0,0.8754,0.8816,0.8805,0.8817,0.8878,0.893,0.8938,0.8935,0.8907,0.8938,0.8949,0.8931,0.9039,0.9006,0.9019,0.9062,0.917,0.9177,0.9183,0.9226,0.9239,0.925,0,0,0,0,0,0,0.8798,0.8819,0.8807,0.8878,0.8903,0.8925,0.8963,0.8949,0.8983,0.8978,0.8974,0.8981,0.9047,0.9061,0.9023,0.914,0.9101,0.911,0.9129,0.9142,0.9151,0.9148,0.8985,0,0,0,0,0,0.8815,0.8855,0.8872,0.8933,0.8946,0.8952,0.8975,0.897,0.8996,0.9007,0.9022,0.9049,0.9089,0.9116,0.9154,0.9232,0.9239,0.9268,0.9277,0.9285,0.9294,0.9337,0.9351,0.9206,0.9206,0.9206,0,0,0.8853,0.8869,0.8895,0.8942,0.8961,0.9003,0.8961,0.9008,0.904,0.9014,0.9076,0.9088,0.9117,0.9189,0.9221,0.9202,0.9335,0.9293,0.9299,0.9304,0.9345,0.9359,0.9371,0.921,0.921,0.9209,0,0,0.8943,0.8958,0.9012,0.903,0.9058,0.9062,0.9075,0.9099,0.9106,0.9167,0.9149,0.9187,0.9256,0.9278,0.9298,0.9396,0.9382,0.9408,0.946,0.9503,0.9514,0.9524,0.9561,0.9573,0.9416,0.9417,0.9417,0,0.8986,0.9048,0.9041,0.9089,0.9111,0.9088,0.9143,0.9162,0.9201,0.9218,0.9195,0.9281,0.93,0.9377,0.94,0.9417,0.9433,0.9406,0.9513,0.9523,0.9532,0.9567,0.958,0.942,0.9419,0.9419,0.9419,0,0.9101,0.9144,0.9184,0.9221,0.9247,0.9299,0.9301,0.9328,0.9321,0.9328,0.9391,0.9411,0.9454,0.9471,0.9465,0.9548,0.9535,0.9513,0.9473,0.9549,0.9582,0.9595,0.9424,0.9423,0.9422,0.9422,0,0,0.9222,0.9253,0.9268,0.9285,0.9314,0.9348,0.9398,0.9438,0.9462,0.949,0.9533,0.9592,0.9571,0.9594,0.959,0.9627,0.9705,0.96,0.9601,0.9621,0.9799,0.9817,0.9832,0.9694,0.9697,0.9699,0.9797,0,0.9315,0.9401,0.9396,0.9478,0.9519,0.9497,0.9541,0.9565,0.9572,0.9608,0.9616,0.9659,0.9628,0.9641,0.9677,0.9688,0.9741,0.9681,0.9737,0.9739,0.9732,0.9849,0.9868,0.9959,0.9809,0.9811,0.9813,0,0.9435,0.9465,0.9551,0.9574,0.9591,0.963,0.9667,0.9701,0.9727,0.973,0.9755,0.9745,0.9798,0.9755,0.9828,0.9787,0.981,0.9819,0.9822,0.9829,0.9782,0.986,0.9988,1.0002,0.9833,0.9831,0.983,0,0.9516,0.9579,0.9638,0.9653,0.9681,0.9709,0.9722,0.9746,0.977,0.9802,0.9818,0.9856,0.9877,0.9907,0.9908,0.9877,0.9983,0.994,0.9988,0.9988,1.0013,1.0012,1.0148,1.0024,1.0024,1.0024,1.0023,0,0.9622,0.9676,0.9675,0.9712,0.9772,0.9766,0.9826,0.9836,0.9857,0.9897,0.988,0.9918,0.9916,0.9955,0.9956,1.0017,1.0026,1.0031,1.0031,1.0034,1.0033,1.005,1.0044,1.0027,1.0027,1.0026,1.0025,0,0.9724,0.9726,0.9789,0.9809,0.9816,0.9859,0.9877,0.9913,0.9918,0.9968,0.998,0.9989,1.0033,1.0036,1.0088,1.0089,1.0164,1.0156,1.0155,1.0154,1.0202,1.0198,1.0355,1.0376,1.0237,1.0239,1.024,0,0.9792,0.9833,0.9857,0.9882,0.9896,0.9936,0.996,0.9956,0.9982,1.0014,1.0047,1.0089,1.0123,1.0195,1.0207,1.0247,1.0241,1.0293,1.0247,1.0249,1.0244,1.0243,1.0247,1.0303,1.0305,1.0306,1.0307,0,0.9914,0.9912,0.9947,0.9983,1.0012,1.004,1.0066,1.0087,1.0086,1.0117,1.0161,1.0187,1.024,1.0283,1.0322,1.0336,1.0323,1.0321,1.0334,1.0339,1.0337,1.034,1.0181,1.0318,1.0317,1.0316,1.0315,1.0315,1.0002,1.0038,1.006,1.01,1.0118,1.0143,1.0178,1.0186,1.0223,1.0264,1.026,1.031,1.0335,1.0385,1.0403,1.0443,1.0425,1.0444,1.045,1.0455,1.0461,1.0329,1.045,1.0449,1.0449,1.0449,1.0448,0,1.0124,1.0137,1.0173,1.021,1.0241,1.0223,1.0251,1.0279,1.0323,1.0346,1.038,1.0432,1.0473,1.0488,1.0528,1.0558,1.0552,1.0569,1.0568,1.0571,1.0473,1.0458,1.0572,1.0572,1.0572,1.0572,1.0572,1.0572,1.0192,1.0251,1.0252,1.0321,1.0333,1.0381,1.0399,1.0422,1.0441,1.0499,1.0533,1.0541,1.0562,1.0604,1.0642,1.0645,1.0662,1.0681,1.0682,1.0591,1.0578,1.0566,1.0552,1.0684,1.0685,1.0777,1.0778,1.0779]}]]